Regional Weather Roundup
Issued by NWS Albany, NY

Home | Current Version | Previous Version | Graphics & Text | Print | Product List | Glossary Off
Versions: 1 2 3 4 5 6 7 8 9 10 11 12 13 14 15 16 17 18 19 20 21 22 23 24 25 26 27 28 29 30 31 32 33 34 35 36 37 38 39 40 41 42 43 44 45 46 47 48 49 50

000
ASUS41 KALY 131010
RWRALY

NEW YORK STATE HOURLY WEATHER ROUNDUP
NATIONAL WEATHER SERVICE ALBANY NY
500 AM EST SAT FEB 13 2016

NOTE: "FAIR" INDICATES FEW OR NO CLOUDS BELOW 12,000 FEET WITH NO
SIGNIFICANT WEATHER AND/OR NO OBSTRUCTIONS TO VISIBILITY.

NYZ032-033-038>043-046>054-057>066-NYZ062>081-131100-
EAST


CITY           SKY/WX    TMP DP  RH WIND       PRES   REMARKS
ALBANY         PTCLDY    18   7  62 W12       29.85R WCI   5
GLENS FALLS    CLOUDY    10   2  69 N3        29.83R
POUGHKEEPSIE   CLOUDY    20  12  71 W5        29.85R WCI  13
NEWBURGH       PTCLDY    16  -2  45 W9        29.84R WCI   4
MONTGOMERY     PTCLDY    15  10  80 W5        29.84R WCI   8
WHITE PLAINS   CLEAR     18  12  77 W8        29.82S WCI   8
ISLIP          CLEAR     19  10  68 W6        29.85S WCI  11
NEW YORK CITY  PTCLDY    22  12  65 W17G25    29.87S WCI   8
CENTRAL PARK   CLEAR     21  12  68 W8        29.89R WCI  11
$$

NYZ005>009-017-018-044>046-055-056-131100-
CENTRAL


CITY           SKY/WX    TMP DP  RH WIND       PRES   REMARKS
FULTON         LGT SNOW  13   6  74 NW16      29.98R VSB 1   WCI  -3
SYRACUSE       LGT SNOW  10   7  87 NW18G25   29.97R VSB 3/4 WCI  -8
ROME           MOCLDY     5  -1  76 NW7       29.95R WCI  -7
ELMIRA         LGT SNOW  12   4  70 NW15G28   29.96R WCI  -4
BINGHAMTON     LGT SNOW  10   5  80 N14G24    29.84R WCI  -6
MONTICELLO     PTCLDY    12   9  85 W13G20    29.79R WCI  -3
$$

NYZ026>034-041>043-131100-
NORTH


CITY           SKY/WX    TMP DP  RH WIND       PRES   REMARKS
WATERTOWN      CLOUDY    -3 -10  72 N12       30.04R WCI -21
FORT DRUM      NOT AVBL
MASSENA        PTCLDY    -5 -15  62 W20G28    30.02R WCI -28
SARANAC LAKE   CLOUDY    -1  -7  75 NW8G18    29.75R HAZE    WCI -15
PLATTSBURGH    MOCLDY     9  -2  61 NW8       29.87R WCI  -3
$$

NYZ001>004-010>016-019>021-131100-
WEST


CITY           SKY/WX    TMP DP  RH WIND       PRES   REMARKS
NIAGARA FALLS  LGT SNOW   3  -5  69 N24G31    30.16R WCI -20
BUFFALO        LGT SNOW   2  -3  80 N15       30.12R BLWGSNOWWCI -17
DUNKIRK        MOCLDY     8  -5  55 NW21G30   30.15R WCI -12
JAMESTOWN      CLOUDY     5  -2  72 NW14G26   29.99R VSB 1   WCI -12
WELLSVILLE     LGT SNOW   5   0  79 NW18G25   29.90R WCI -15
ROCHESTER      CLOUDY     5  -2  72 NW22G30   30.09R HAZE    WCI -16
PENN YAN       LGT SNOW   8   0  69 NW17G29   29.99R WCI -10
$$

             KEY
       WCI = WIND CHILL INDEX
       VSB = VISIBILITY
       HX  = HEAT INDEX
$$



USA.gov is the U.S. government's official web portal to all federal, state and local government web resources and services.